NOAA NWS Hourly Roundups by Site

Regional Weather Roundup for San Diego, CA

To Select Another Site Choose from List

Select Site:  

000
ASUS46 KSGX 041211
RWRSGX

SAN DIEGO HOURLY WEATHER ROUNDUP
NATIONAL WEATHER SERVICE SAN DIEGO CA
500 AM PDT SAT APR 04 2020

NOTE: "FAIR" INDICATES FEW OR NO CLOUDS BELOW 12,000 FEET WITH NO
SIGNIFICANT WEATHER AND/OR OBSTRUCTIONS TO VISIBILITY.

CAZ042-043-060-061-PZZ750-775-041300-

GREATER SAN DIEGO AREA

CITY           SKY/WX    TMP DP  RH WIND       PRES   REMARKS
SAN DIEGO AP   MOCLDY    60  52  74 S7        29.91F
NATIONAL CITY    N/A    N/A N/A N/A CALM      29.90F
CHULA VISTA      N/A     56  51  82 CALM      29.81F
BROWN FIELD    CLOUDY    54  48  80 S6        29.90F
MIRAMAR MCAS   CLOUDY    56  50  80 S5        29.89F
MONTGOMERY FLD CLOUDY    56  49  77 S5        29.90F
GILLESPIE FLD  CLOUDY    57  48  72 S6        29.89F
LEMON GROVE      N/A     55  50  84 CALM      29.88F

$$

NORTH SAN DIEGO COUNTY

CITY           SKY/WX    TMP DP  RH WIND       PRES   REMARKS
CAMP PENDLETON CLOUDY    56  49  77 CALM      29.89F
OCEANSIDE AP   CLOUDY    56  53  90 NE3       29.88F FOG
OCEANSIDE HBR    N/A     57  52  84 E2        29.96F
VISTA            N/A     54  49  84 CALM      29.87F
CARLSBAD       CLOUDY    57  48  72 SE6       29.88F
ENCINITAS        N/A     54  51  90 CALM        N/A
DEL MAR          N/A     55  52  88 SE1       29.91S
LA JOLLA SCRIP   N/A     56  51  84 CALM      29.89F
FALLBROOK      CLOUDY    54  50  87 CALM      29.90S
ESCONDIDO        N/A     55  51  86 CALM      29.89F
SAN MARCOS       N/A     55  50  85 CALM      29.93F
RANCHO BERNARD   N/A     54  49  82 S2        29.89F
POWAY            N/A     55  49  82 CALM      29.91F

$$

EAST SAN DIEGO COUNTY

CITY           SKY/WX    TMP DP  RH WIND       PRES   REMARKS
RAMONA         FAIR      47  46  97 CALM      29.89F
LA MESA          N/A     54  48  81 CALM      29.85F
JAMUL            N/A     50  48  93 N1        29.90F
DESCANSO N       N/A     35  32  89 NE3       29.86F
MT. LAGUNA OBS   N/A     40  18  40 W1        29.75F
CAMPO            N/A     44  41  89 CALM      29.86F

$$

ORANGE COUNTY AND THE LOS ANGELES BASIN

CITY           SKY/WX    TMP DP  RH WIND       PRES   REMARKS
JOHN WAYNE AP  MOCLDY    58  48  69 E3        29.88F
LAGUNA BEACH     N/A     55  51  87 CALM      29.87F
LAKE FOREST FR   N/A     51  44  76 E5        29.77F
HUNTINGTON BCH   N/A     56  52  88 E2        29.88F
LOS ALAMITOS   FAIR      53  46  78 E5        29.88F
FULLERTON      FAIR      57  49  74 E3        29.88F
LONG BEACH     CLOUDY    55  50  83 E6        29.89F
L.A. AP        FAIR      57  50  77 NE6       29.89F
L.A. DOWNTOWN  MOCLDY    59  50  72 E3        29.89F

$$

THE INLAND EMPIRE

CITY           SKY/WX    TMP DP  RH WIND       PRES   REMARKS
CORONA         CLOUDY    49  48  97 CALM      29.90F
ALTA LOMA        N/A     49  46  88 W1        29.88F
CHINO          CLOUDY    53  48  83 N3        29.90F
ONTARIO        MOCLDY    53  50  89 W6        29.89F
SAN BERNARDINO CLOUDY    56  46  69 SE6       29.89F
RIVERSIDE AP   CLOUDY    54  48  80 E3        29.89F
MORENO VALLEY    N/A     50  49  95 S2        29.87F
MARCH ARB      CLOUDY    51  47  85 S6        29.89F
HORSETHIEF CYN   N/A     47  42  83 CALM      29.88F
PERRIS           N/A     49  49  98 CALM      29.88F
LAKE ELSINORE    N/A     48  44  85 CALM      29.82F
HEMET EAST       N/A     49  43  82 CALM      29.92F
FRENCH VALLEY  CLOUDY    52  48  87 CALM      29.90F
TEMECULA         N/A     53  51  94 CALM      29.89F

$$

SAN BERNARDINO AND RIVERSIDE COUNTY MOUNTAINS

CITY           SKY/WX    TMP DP  RH WIND       PRES   REMARKS
BIG BEAR AP    FAIR      32  25  74 SW3       29.90F
BIG BEAR LAKE    N/A     31  25  78 CALM      29.83F
LK ARROWHEAD N   N/A     40  39  96 CALM      29.80F
WRIGHTWOOD       N/A     38  20  48 CALM      29.81F
ANGELUS OAKS     N/A     35  26  71 CALM      29.77F
IDYLLWILD        N/A     34  30  85 CALM      29.78F
GARNER VALLEY    N/A     39  36  89 CALM      29.79F
TORO PEAK        N/A     37  10  32 S5          N/A  WCI  33

$$

SOUTHERN DESERT INCLUDING THE COACHELLA VALLEY

CITY           SKY/WX    TMP DP  RH WIND       PRES   REMARKS
PALM SPRINGS   FAIR      59  47  64 CALM      29.77S
THOUSAND PALMS   N/A     61  43  53 W23       29.71F
PALM DESERT      N/A     57  47  70 CALM      31.77S
THERMAL        FAIR      65  43  44 NW15      29.73F
BORREGO AP     FAIR      59  36  41 VRB3      29.77F
OCOTILLO WELLS   N/A     63  40  42 N12       29.69F
CANEBRAKE        N/A     60  28  29 W5        29.72F
BLYTHE         FAIR      57  43  59 N3        29.74F
IMPERIAL AP    FAIR      58  36  43 W8        29.75S
EL CENTRO NAS  FAIR      61  33  35 W14       29.77S
YUMA AZ        FAIR      55  43  63 S3        29.77S

$$

UPPER DESERT

CITY           SKY/WX    TMP DP  RH WIND       PRES   REMARKS
HESPERIA         N/A     47  42  83 NE7       29.85F
APPLE VALLEY     N/A     47  42  83 NE3       29.87S
PALMDALE       FAIR      48  30  49 SW10      29.85F
LANCASTER      FAIR      50  27  40 W22G31    29.84F
EDWARDS AFB    FAIR      46  26  45 SW12      29.81S
DAGGETT        FAIR      53  25  33 W9        29.80S
29 PALMS N     FAIR      54  37  52 NW10      29.87S
29 PALMS JTNP    N/A     56  38  50 W5        29.72F
NEEDLES        FAIR      59  30  33 SE5       29.76R

$$

REGIONAL REPORTS

CITY           SKY/WX    TMP DP  RH WIND       PRES   REMARKS
SANTA BARBARA  FAIR      44  40  85 W3        29.88S
SANDBERG       FAIR      42  25  50 NW9       29.90S
LAS VEGAS NV   FAIR      53  24  32 S3        29.77S
PHOENIX AZ     FAIR      61  34  36 E10       29.78S
TIJUANA          N/A    N/A N/A N/A MISG        N/A

$$

OFFSHORE ISLANDS

CITY           SKY/WX    TMP DP  RH WIND       PRES   REMARKS
CATALINA ARPT  MOCLDY    49  45  86 SE7       29.87S
SAN CLEMENTE I FAIR      54  32  43 W6        29.88F
SAN NICOLAS IS CLOUDY    50  46  86 NW20G28   29.88S

$$

MARINE AND OFFSHORE BUOY REPORTS

STATION/POSITION SKY/WX   TEMP    WIND        PRES    VSBY  SWELL
                          AIR SEA DIR/SP/G                  HT/PER/DIR
                          (F)     (DEG/KT/KT) (MB)    (MI)  (FT/S/D)
TANNER BANKS               56     310/ 19/ 25 1013.0S         7/300/10
S CLEMENTE BASIN           57     280/ 12/ 16 1012.2S         7/280/ 8
SAN NICOLAS IS.               57                N/A           3/310/11
SO. S. ROSA ISLA              57              1013.1F
W. S. BARBARA CH           52 54  320/ 23/ 27 1012.5
M. S. BARBARA CH           56 57     CALM     1012.3
S. MONICA BASIN            57 60   10/  8/ 10 1012.0F         3/200/14
S PEDRO CHANNEL               60                N/A           2/170/14
OCEANSIDE OFFSHR              60                N/A           2/190/13
TORREY PINES OTR              59                N/A           3/190/13
SAN DIEGO BAY                 62              1012.3
POINT LOMA SOUTH              61                N/A           3/180/14

$$




 

View Past Reports for San Diego, CA.

Products Courtesy of NOAA-NWS
NWS Information Parsing Script by Ken True at Saratoga Weather - Script by SE Lincoln Weather.